STARLINK-33723, 63593

Orbit data source: Space-Track

STARLINK-33723, 63593 is a payload satellite owned by SpaceX/Seattle (US) in LEO that was launched on Mon, 14 Apr 2025 UTC via an FALCON 9 launch vehicle from the Air Force Eastern Test Range (AFETR). Payload-class satellites include a variety of spacecraft equipped with specific instruments for various scientific and technological missions. These include communications satellites like Starlink; space stations such as the ISS; scientific satellites like the Hubble; Earth observation satellites from companies like Planet Labs, Umbra, and HawkEye 360; GPS; miniature CubeSats for education and research; and military/defense satellites.

Loading next visibility...
Identifier
63593, 2025-076AA
Orbit
LEO
Country
Flag of USUS
Related business
Manufacturer
SpaceX/Seattle
Mission
Operational Commercial Communications
Bus & Motor
STARLINK V2MO, Unknown motor
Mass
575 kg wet, ~530 kg dry
Launch date (UTC)
2025-04-14 (6 months ago)
Launch vehicle
FALCON 9
Launch site
Air Force Eastern Test Range (AFETR)
Object type
Payload
Rocket body
Debris
Shape & HBR
Box + 2 Pan, 17.7 m
Radar Cross Section
36.964 m², Large (>1 m²)

Expand to show TLE details & history
Last TLE update: 15 hours ago

TLE from 15 hours ago
0 STARLINK-33723
1 63593U 25076AA  25291.02575464  .00049695  00000-0  18023-2 0  9997
2 63593  43.0070  47.2215 0000753 285.0387  75.0381 15.27598173 30017
Epoch: 2025-10-18T00:37Z
TLE epoch observation values (Epoch: 2025-10-18T00:37:05.200Z)
Latitude
-0.00006°
Longitude
11.18708°
Altitude
482.638 km
Speed
7.626 km/s
True Right ascension
03h 08m 53s
True Declination
0° 00' 00"
Sunlit
Object was in full shadow at epoch
Visualization orbit readout
Latitude
Unknown
Longitude
Unknown
Altitude
Unknown
Speed
Unknown
Apparent Right ascension
Unknown
Apparent Declination
Unknown
Sunlit
N/A
Visualization observer readout
Local Sidereal Time
10:35:23
Azimuth
Unknown
Elevation
Unknown
Doppler factor
Unknown
Orbital elements
Apogee altitude
485.455 km
Perigee altitude
484.422 km
Semi-major axis
6,863.076 km
Eccentricity
0.00008
Inclination
43.007°
RAAN
47.2215°
Arg. of periapsis
285.0387°
True anomaly
75.04644°
Mean anomaly
75.0381°
Eccentric anomaly
75.04227°
Mean motion
3.81738 °/min
Orbital period
94.31 mins
BSTAR
0.0018023
Loading maneuver chart data...
Computing Atmospheric mass density...
Loading historical data...
Loading historical data...
Loading historical data...
Loading historical data...
Loading historical data...
Loading historical data...
Loading historical data...

Documentation

Showing up to 5 results
|